STARLINK-37591, 69033

Orbit data source: Space-Track

STARLINK-37591, 69033 is a payload satellite owned by SpaceX/Seattle (US) in SSO that was launched on Wed, 06 May 2026 UTC via an FALCON 9 launch vehicle from the Air Force Western Test Range (AFWTR). Payload-class satellites include a variety of spacecraft equipped with specific instruments for various scientific and technological missions. These include communications satellites like Starlink; space stations such as the ISS; scientific satellites like the Hubble; Earth observation satellites from companies like Planet Labs, Umbra, and HawkEye 360; GPS; miniature CubeSats for education and research; and military/defense satellites.

Loading next visibility...
Identifier
69033, 2026-101J
Orbit
SSO
Country
Flag of USUS
Related business
Manufacturer
SpaceX/Seattle
Mission
Operational Commercial Communications
Bus & Motor
STARLINK V2MO, Unknown motor
Mass
575 kg wet, ~530 kg dry
Launch date (UTC)
2026-05-06 (3 months ago)
Launch vehicle
FALCON 9
Launch site
Air Force Western Test Range (AFWTR)
Object type
Payload
Rocket body
Debris
Shape & HBR
Box + 2 Pan, 17.7 m
Radar Cross Section
36.964 m², Large (>1 m²)

Expand to show TLE details & history
Last TLE update: 13 hours ago

TLE from 13 hours ago
0 STARLINK-37591
1 69033U 26101J   26206.56922794  .00022616  00000-0  70078-3 0  9993
2 69033  97.2865  60.8520 0002183  69.9182 290.2295 15.33442989 12459
Epoch: 2026-07-25T13:39Z
TLE epoch observation values (Epoch: 2026-07-25T13:39:41.294Z)
Latitude
-0.00005°
Longitude
-87.34968°
Altitude
468.145 km
Speed
7.632 km/s
True Right ascension
04h 03m 24s
True Declination
0° 00' 00"
Sunlit
Object was in daylight at epoch
Visualization orbit readout
Latitude
Unknown
Longitude
Unknown
Altitude
Unknown
Speed
Unknown
Apparent Right ascension
Unknown
Apparent Declination
Unknown
Sunlit
N/A
Visualization observer readout
Local Sidereal Time
16:18:39
Azimuth
Unknown
Elevation
Unknown
Doppler factor
Unknown
Orbital elements
Apogee altitude
463.985 km
Perigee altitude
460.999 km
Semi-major axis
6,840.629 km
Eccentricity
0.00022
Inclination
97.2865°
RAAN
60.852°
Arg. of periapsis
69.9182°
True anomaly
290.20603°
Mean anomaly
290.2295°
Eccentric anomaly
290.21776°
Mean motion
3.83618 °/min
Orbital period
93.84 mins
BSTAR
0.00070078
Loading maneuver chart data...
Computing Atmospheric mass density...
Loading historical data...
Loading historical data...
Loading historical data...
Loading historical data...
Loading historical data...
Loading historical data...
Loading historical data...

Documentation

Showing up to 5 results
|